period_start,C,m1,H,J0,J1,J2,J3,J4,J5,JA,JB,JC,JD,JJ,JK,JN,#
2017-11-22 00:04:24,0.05,0.51,0.00,17.44,20.87,24.22,14.33,48.94,1023.85,2053.97,3257.93,3048.10,3387.12,600.16,611.96,12.02,0000 0000 0000 0000 000000
2017-11-22 00:09:25,0.01,0.51,0.00,17.39,20.84,24.26,14.35,48.98,1023.89,2053.97,3256.93,3048.00,3386.90,599.96,611.88,12.07,0000 0000 0000 0000 000000
2017-11-22 00:14:26,0.06,0.51,0.00,17.41,20.83,24.25,14.34,48.95,1023.90,2053.98,3255.58,3047.46,3385.96,600.04,612.04,12.12,0000 0000 0000 0000 000000
2017-11-22 00:19:28,0.09,0.51,0.00,17.38,20.82,24.21,14.35,48.86,1023.93,2053.99,3253.47,3046.34,3384.62,599.79,611.74,12.17,0000 0000 0000 0000 000000
2017-11-22 00:24:29,0.14,0.52,0.00,17.35,20.80,24.20,14.40,48.83,1023.94,2053.99,3250.36,3044.55,3382.56,600.31,612.27,12.22,0000 0000 0000 0000 000000
2017-11-22 00:29:31,0.07,0.52,0.00,17.36,20.79,24.20,14.39,48.76,1023.94,2054.00,3248.26,3043.30,3381.11,600.01,611.93,12.27,0000 0000 0000 0000 000000
2017-11-22 00:34:32,0.03,0.53,0.00,17.34,20.77,24.15,14.36,48.74,1023.94,2054.00,3247.01,3042.99,3380.44,600.10,612.15,12.32,0000 0000 0000 0000 000000
2017-11-22 00:39:34,0.04,0.53,0.00,17.33,20.76,24.15,14.32,48.70,1023.94,2054.00,3246.02,3042.42,3379.99,599.75,611.78,12.37,0000 0000 0000 0000 000000
2017-11-22 00:44:35,0.04,0.53,0.00,17.29,20.74,24.14,14.42,48.73,1023.95,2054.02,3244.93,3041.98,3379.47,600.06,612.19,12.42,0000 0000 0000 0000 000000
2017-11-22 00:49:36,0.12,0.53,0.00,17.30,20.73,24.11,14.38,48.79,1023.96,2054.01,3242.49,3040.66,3377.70,600.16,612.22,12.47,0000 0000 0000 0000 000000
2017-11-22 00:54:37,0.08,0.54,0.00,17.30,20.71,24.12,14.37,48.74,1023.99,2054.01,3240.22,3039.46,3376.22,599.93,612.10,12.52,0000 0000 0000 0000 000000
2017-11-22 00:59:39,0.04,0.54,0.00,17.26,20.69,24.11,14.40,48.73,1024.09,2054.05,3238.84,3038.94,3375.40,600.03,612.37,12.57,0000 0000 0000 0000 000000
2017-11-22 01:04:40,0.05,0.55,0.00,17.26,20.68,24.14,14.35,48.72,1024.25,2054.08,3237.68,3038.14,3374.86,599.99,612.36,12.62,0000 0000 0000 0000 000000
2017-11-22 01:09:41,0.04,0.55,0.00,17.23,20.67,24.13,14.36,48.76,1024.40,2054.12,3236.41,3037.91,3374.02,599.94,612.44,12.67,0000 0000 0000 0000 000000
2017-11-22 01:14:42,0.11,0.55,0.00,17.23,20.65,24.05,14.48,48.76,1024.41,2054.26,3234.46,3036.75,3372.81,600.25,612.81,12.72,0000 0000 0000 0000 000000
2017-11-22 01:19:44,0.14,0.56,0.00,17.19,20.64,24.02,14.38,48.77,1024.39,2054.39,3231.53,3035.12,3370.93,599.81,612.42,12.77,0000 0000 0000 0000 000000
2017-11-22 01:24:45,0.15,0.57,0.00,17.17,20.62,24.05,14.36,48.78,1024.42,2054.74,3228.68,3033.58,3369.05,599.61,612.24,12.82,0000 0000 0000 0000 000000
2017-11-22 01:29:47,0.12,0.57,0.00,17.17,20.60,24.00,14.37,48.78,1024.43,2054.92,3225.92,3032.07,3367.28,599.99,612.77,12.87,0000 0000 0000 0000 000000
2017-11-22 01:34:48,0.15,0.58,0.00,17.12,20.59,23.99,14.35,48.87,1024.43,2054.96,3222.55,3030.14,3365.05,599.96,612.69,12.92,0000 0000 0000 0000 000000
2017-11-22 01:39:49,0.14,0.59,0.00,17.16,20.57,23.96,14.26,48.81,1024.43,2054.98,3219.21,3028.22,3362.87,599.79,612.51,12.97,0000 0000 0000 0000 000000
2017-11-22 01:44:50,0.11,0.59,0.00,17.15,20.55,23.94,14.40,48.84,1024.43,2054.98,3216.39,3026.59,3360.92,600.17,612.86,13.02,0000 0000 0000 0000 000000
2017-11-22 01:49:52,0.09,0.60,0.00,17.12,20.54,23.94,14.39,48.77,1024.43,2054.99,3213.76,3025.18,3359.21,600.07,612.80,13.07,0000 0000 0000 0000 000000
2017-11-22 01:54:53,0.05,0.60,0.00,17.10,20.52,23.93,14.29,48.73,1024.44,2054.99,3212.28,3024.61,3358.18,599.80,612.68,13.12,0000 0000 0000 0000 000000
2017-11-22 01:59:54,0.02,0.60,0.00,17.15,20.51,23.90,14.26,48.77,1024.43,2054.99,3211.46,3024.06,3358.00,599.54,612.34,13.17,0000 0000 0000 0000 000000
2017-11-22 02:04:56,0.03,0.60,0.00,17.16,20.49,23.88,14.39,48.76,1024.44,2054.99,3210.55,3024.00,3357.47,599.81,612.58,13.22,0000 0000 0000 0000 000000
2017-11-22 02:09:57,0.05,0.61,0.00,17.10,20.48,23.86,14.39,48.82,1024.45,2055.00,3209.25,3023.54,3356.73,600.17,613.08,13.27,0000 0000 0000 0000 000000
2017-11-22 02:14:58,0.11,0.61,0.00,17.07,20.47,23.90,14.35,48.78,1024.49,2055.01,3206.79,3022.10,3355.11,600.03,612.98,13.32,0000 0000 0000 0000 000000
2017-11-22 02:19:59,0.12,0.62,0.00,17.10,20.45,23.90,14.40,48.78,1024.55,2055.01,3204.00,3020.55,3353.28,600.06,612.87,13.37,0000 0000 0000 0000 000000
2017-11-22 02:25:01,0.04,0.62,0.00,17.06,20.44,23.84,14.44,48.77,1024.75,2055.01,3202.12,3019.85,3352.05,600.24,613.19,13.43,0000 0000 0000 0000 000000
2017-11-22 02:30:02,0.04,0.62,0.00,17.03,20.43,23.84,14.48,48.83,1024.85,2055.02,3201.15,3019.11,3351.69,600.24,613.49,13.48,0000 0000 0000 0000 000000
2017-11-22 02:35:03,0.08,0.63,0.00,17.04,20.42,23.80,14.34,48.78,1024.91,2055.02,3199.34,3018.35,3350.48,599.88,613.11,13.53,0000 0000 0000 0000 000000
2017-11-22 02:40:04,0.08,0.63,0.00,17.03,20.40,23.81,14.36,48.88,1024.91,2055.10,3197.54,3017.27,3349.21,599.90,613.09,13.58,0000 0000 0000 0000 000000
2017-11-22 02:45:06,0.03,0.63,0.00,17.03,20.39,23.72,14.32,48.73,1024.92,2055.25,3196.46,3016.99,3348.81,599.63,612.96,13.63,0000 0000 0000 0000 000000
2017-11-22 02:50:07,0.07,0.64,0.00,17.00,20.38,23.78,14.36,48.70,1024.92,2055.28,3194.93,3016.31,3347.76,599.96,613.36,13.68,0000 0000 0000 0000 000000
2017-11-22 02:55:08,0.06,0.64,0.00,17.01,20.37,23.75,14.29,48.62,1024.92,2055.52,3193.59,3015.92,3347.02,599.79,613.25,13.73,0000 0000 0000 0000 000000
2017-11-22 03:00:09,0.06,0.65,0.00,17.00,20.36,23.76,14.36,48.79,1024.93,2055.77,3192.54,3015.19,3346.47,600.05,613.39,13.78,0000 0000 0000 0000 000000
2017-11-22 03:05:10,0.02,0.65,0.00,16.96,20.34,23.75,14.44,48.71,1024.95,2055.86,3191.79,3015.00,3346.01,600.37,613.81,13.83,0000 0000 0000 0000 000000
2017-11-22 03:10:11,0.07,0.65,0.00,16.97,20.33,23.71,14.40,48.79,1025.03,2055.91,3190.50,3014.48,3345.33,599.95,613.33,13.88,0000 0000 0000 0000 000000
2017-11-22 03:15:12,0.03,0.65,0.00,16.98,20.32,23.71,14.44,48.83,1025.02,2055.95,3189.09,3014.00,3344.61,600.00,613.43,13.93,0000 0000 0000 0000 000000
2017-11-22 03:20:14,0.06,0.65,0.00,16.95,20.31,23.70,14.39,48.87,1025.16,2055.98,3187.72,3013.30,3343.84,600.13,613.72,13.98,0000 0000 0000 0000 000000
2017-11-22 03:25:15,0.07,0.66,0.00,16.97,20.29,23.67,14.47,48.87,1025.18,2055.99,3186.15,3012.58,3342.82,600.40,613.97,14.03,0000 0000 0000 0000 000000
2017-11-22 03:30:16,0.04,0.66,0.00,16.98,20.29,23.56,14.30,48.89,1025.19,2055.99,3184.38,3011.86,3341.88,599.74,613.25,14.08,0000 0000 0000 0000 000000
2017-11-22 03:35:18,0.04,0.66,0.00,16.93,20.27,23.57,14.40,48.87,1025.32,2055.99,3183.19,3011.09,3341.07,599.89,613.63,14.13,0000 0000 0000 0000 000000
2017-11-22 03:40:19,0.05,0.67,0.00,16.95,20.27,23.56,14.37,48.91,1025.39,2055.99,3181.81,3010.74,3340.28,600.00,613.67,14.18,0000 0000 0000 0000 000000
2017-11-22 03:45:20,0.04,0.67,0.00,16.94,20.25,23.52,14.40,48.92,1025.40,2055.99,3180.62,3010.09,3339.69,600.09,613.85,14.23,0000 0000 0000 0000 000000
2017-11-22 03:50:21,0.04,0.67,0.00,16.94,20.24,23.50,14.44,48.86,1025.40,2055.99,3179.33,3009.58,3338.97,600.05,613.62,14.28,0000 0000 0000 0000 000000
2017-11-22 03:55:23,0.04,0.67,0.00,16.93,20.24,23.57,14.38,48.92,1025.41,2055.99,3178.12,3009.01,3338.12,600.13,613.95,14.33,0000 0000 0000 0000 000000
2017-11-22 04:00:24,0.02,0.67,0.00,16.90,20.23,23.52,14.45,48.98,1025.41,2056.00,3177.14,3008.90,3337.83,600.18,614.09,14.38,0000 0000 0000 0000 000000
2017-11-22 04:05:25,0.04,0.68,0.00,16.94,20.22,23.56,14.48,48.83,1025.41,2056.00,3176.32,3008.26,3337.08,600.18,614.00,14.43,0000 0000 0000 0000 000000
2017-11-22 04:10:26,0.02,0.68,0.00,16.93,20.22,23.55,14.41,48.83,1025.43,2056.01,3175.34,3008.01,3336.80,600.00,613.84,14.48,0000 0000 0000 0000 000000
2017-11-22 04:15:27,0.07,0.68,0.00,16.93,20.21,23.49,14.41,48.88,1025.50,2056.00,3173.58,3007.26,3335.75,599.88,613.63,14.53,0000 0000 0000 0000 000000
2017-11-22 04:20:28,0.11,0.69,0.00,16.87,20.19,23.47,14.38,49.03,1025.59,2056.01,3171.08,3006.08,3334.13,600.01,614.01,14.58,0000 0000 0000 0000 000000
2017-11-22 04:25:30,0.11,0.69,0.00,16.88,20.19,23.50,14.43,48.99,1025.74,2056.01,3168.20,3004.41,3332.16,600.20,614.16,14.63,0000 0000 0000 0000 000000
2017-11-22 04:30:31,0.09,0.70,0.00,16.89,20.19,23.53,14.47,48.84,1025.89,2056.02,3165.73,3003.07,3330.46,600.13,614.34,14.68,0000 0000 0000 0000 000000
2017-11-22 04:35:33,0.05,0.70,0.00,16.86,20.17,23.54,14.40,48.84,1025.89,2056.02,3164.36,3002.22,3329.79,600.22,614.45,14.73,0000 0000 0000 0000 000000
2017-11-22 04:40:34,0.08,0.70,0.00,16.84,20.17,23.47,14.41,48.88,1025.89,2056.05,3162.47,3001.43,3328.55,600.01,614.26,14.78,0000 0000 0000 0000 000000
2017-11-22 04:45:35,0.08,0.71,0.00,16.84,20.17,23.51,14.43,48.84,1025.89,2056.04,3160.55,3000.23,3327.20,600.03,614.29,14.83,0000 0000 0000 0000 000000
2017-11-22 04:50:36,0.03,0.71,0.00,16.86,20.15,23.49,14.40,48.89,1025.90,2056.04,3159.40,2999.96,3326.56,600.19,614.29,14.88,0000 0000 0000 0000 000000
2017-11-22 04:55:37,0.05,0.71,0.00,16.80,20.14,23.48,14.42,48.88,1025.90,2056.06,3158.34,2999.26,3326.01,599.92,614.24,14.93,0000 0000 0000 0000 000000
2017-11-22 05:00:38,0.05,0.72,0.00,16.80,20.14,23.48,14.39,48.89,1025.91,2056.07,3156.99,2998.72,3325.21,599.85,614.13,14.98,0000 0000 0000 0000 000000
2017-11-22 05:05:40,0.10,0.72,0.00,16.82,20.12,23.48,14.36,48.88,1025.91,2056.09,3154.78,2997.50,3323.73,600.11,614.48,15.03,0000 0000 0000 0000 000000
2017-11-22 05:10:41,0.14,0.73,0.00,16.78,20.12,23.44,14.45,48.91,1025.91,2056.14,3151.89,2995.73,3321.72,600.04,614.46,15.08,0000 0000 0000 0000 000000
2017-11-22 05:15:42,0.15,0.73,0.00,16.76,20.10,23.42,14.33,48.91,1025.92,2056.22,3148.79,2993.90,3319.59,600.03,614.46,15.13,0000 0000 0000 0000 000000
2017-11-22 05:20:44,0.13,0.74,0.00,16.77,20.09,23.45,14.41,48.92,1025.92,2056.46,3145.76,2992.17,3317.49,600.05,614.46,15.18,0000 0000 0000 0000 000000
2017-11-22 05:25:45,0.04,0.75,0.00,16.77,20.08,23.40,14.38,48.77,1025.91,2056.34,3144.17,2991.15,3316.39,599.90,614.31,15.23,0000 0000 0000 0000 000000
2017-11-22 05:30:46,0.05,0.75,0.00,16.71,20.07,23.40,14.47,48.93,1025.90,2056.54,3143.32,2990.98,3315.98,600.23,614.75,15.28,0000 0000 0000 0000 000000
2017-11-22 05:35:47,0.08,0.75,0.00,16.68,20.06,23.38,14.45,48.96,1025.91,2056.73,3141.74,2990.20,3315.04,599.93,614.47,15.33,0000 0000 0000 0000 000000
2017-11-22 05:40:49,0.11,0.76,0.00,16.69,20.04,23.31,14.34,48.88,1025.91,2056.86,3139.58,2989.03,3313.66,599.69,614.24,15.38,0000 0000 0000 0000 000000
2017-11-22 05:45:50,0.08,0.76,0.00,16.68,20.04,23.27,14.42,48.81,1026.00,2056.92,3137.52,2987.90,3312.33,600.14,614.86,15.43,0000 0000 0000 0000 000000
2017-11-22 05:50:52,0.11,0.77,0.00,16.71,20.03,23.25,14.45,48.87,1026.19,2056.94,3135.24,2986.51,3310.74,600.30,614.92,15.48,0000 0000 0000 0000 000000
2017-11-22 05:55:53,0.12,0.77,0.00,16.73,20.02,23.25,14.38,48.92,1026.35,2056.95,3132.58,2984.82,3308.79,599.94,614.65,15.53,0000 0000 0000 0000 000000
2017-11-22 06:00:55,0.12,0.78,0.00,16.76,20.02,23.22,14.39,48.89,1026.38,2056.97,3129.86,2983.22,3306.86,599.99,614.75,15.58,0000 0000 0000 0000 000000
2017-11-22 06:05:56,0.14,0.79,0.00,16.78,20.02,23.22,14.33,48.83,1026.38,2056.97,3126.72,2981.30,3304.67,599.93,614.73,15.63,0000 0000 0000 0000 000000
2017-11-22 06:10:57,0.12,0.79,0.00,16.77,20.02,23.22,14.41,48.91,1026.38,2056.95,3123.78,2979.53,3302.60,600.05,614.95,15.68,0000 0000 0000 0000 000000
2017-11-22 06:15:59,0.13,0.80,0.00,16.78,20.02,23.24,14.32,48.98,1026.38,2056.96,3121.00,2977.78,3300.64,599.88,614.56,15.74,0000 0000 0000 0000 000000
2017-11-22 06:21:00,0.07,0.80,0.00,16.78,20.02,23.22,14.34,48.83,1026.38,2056.97,3119.15,2976.74,3299.47,599.70,614.30,15.79,0000 0000 0000 0000 000000
2017-11-22 06:26:01,0.07,0.81,0.00,16.79,20.02,23.26,14.46,48.89,1026.38,2056.96,3117.17,2975.71,3298.10,600.15,614.79,15.84,0000 0000 0000 0000 000000
2017-11-22 06:31:03,0.04,0.81,0.00,16.79,20.02,23.33,14.40,49.02,1026.39,2056.97,3116.11,2975.06,3297.52,599.88,614.57,15.89,0000 0000 0000 0000 000000
2017-11-22 06:36:04,0.01,0.81,0.00,16.79,20.02,23.29,14.38,48.93,1026.40,2056.96,3115.26,2974.99,3297.01,599.82,614.40,15.94,0000 0000 0000 0000 000000
2017-11-22 06:41:05,0.05,0.81,0.00,16.78,20.02,23.24,14.47,48.88,1026.41,2056.97,3114.46,2974.57,3296.58,600.02,614.74,15.99,0000 0000 0000 0000 000000
2017-11-22 06:46:06,0.02,0.82,0.00,16.76,20.02,23.27,14.44,48.86,1026.43,2056.98,3113.51,2974.03,3296.01,600.07,614.60,16.04,0000 0000 0000 0000 000000
2017-11-22 06:51:08,0.03,0.82,0.00,16.73,20.02,23.26,14.39,48.90,1026.46,2056.97,3112.50,2973.96,3295.55,599.92,614.63,16.09,0000 0000 0000 0000 000000
2017-11-22 06:56:09,0.04,0.82,0.00,16.71,20.00,23.28,14.38,48.84,1026.44,2056.96,3111.61,2973.21,3294.95,599.92,614.77,16.14,0000 0000 0000 0000 000000
2017-11-22 07:01:10,0.09,0.82,0.00,16.71,19.99,23.27,14.42,48.97,1026.46,2056.97,3109.69,2972.26,3293.60,599.98,614.90,16.19,0000 0000 0000 0000 000000
2017-11-22 07:06:12,0.12,0.83,0.00,16.70,19.99,23.28,14.42,49.11,1026.53,2056.98,3107.08,2970.70,3291.76,600.13,615.07,16.24,0000 0000 0000 0000 000000
2017-11-22 07:11:13,0.09,0.83,0.00,16.68,19.99,23.22,14.40,49.24,1026.68,2056.97,3104.79,2969.45,3290.26,599.93,614.98,16.29,0000 0000 0000 0000 000000
2017-11-22 07:16:14,0.09,0.84,0.00,16.65,19.98,23.28,14.47,49.29,1026.72,2056.97,3102.57,2968.08,3288.70,600.30,615.50,16.34,0000 0000 0000 0000 000000
2017-11-22 07:21:15,0.08,0.84,0.00,16.64,19.97,23.32,14.48,49.23,1026.62,2056.98,3100.65,2967.02,3287.49,600.32,615.43,16.39,0000 0000 0000 0000 000000
2017-11-22 07:26:16,0.10,0.85,0.00,16.65,19.97,23.31,14.42,49.17,1026.72,2056.97,3098.61,2965.81,3286.04,600.14,615.31,16.44,0000 0000 0000 0000 000000
2017-11-22 07:31:18,0.09,0.85,0.00,16.61,19.95,23.30,14.41,49.08,1026.75,2056.97,3096.55,2964.61,3284.58,599.89,615.21,16.49,0000 0000 0000 0000 000000
2017-11-22 07:36:19,0.07,0.86,0.00,16.60,19.94,23.33,14.40,48.94,1026.86,2056.99,3094.78,2963.66,3283.47,599.78,614.97,16.54,0000 0000 0000 0000 000000
2017-11-22 07:41:21,0.10,0.86,0.00,16.60,19.93,23.26,14.42,48.98,1026.86,2056.99,3092.55,2962.43,3281.95,600.08,615.45,16.59,0000 0000 0000 0000 000000
2017-11-22 07:46:22,0.12,0.87,0.00,16.59,19.92,23.26,14.40,49.02,1026.87,2056.99,3090.06,2960.83,3280.20,599.82,615.19,16.64,0000 0000 0000 0000 000000
2017-11-22 07:51:23,0.05,0.87,0.00,16.56,19.91,23.27,14.46,49.06,1026.87,2056.99,3088.20,2959.96,3279.02,599.88,615.35,16.69,0000 0000 0000 0000 000000
2017-11-22 07:56:25,0.07,0.87,0.00,16.54,19.89,23.22,14.39,49.11,1026.87,2056.99,3086.75,2959.07,3278.09,599.58,615.08,16.74,0000 0000 0000 0000 000000
2017-11-22 08:01:26,0.11,0.88,0.00,16.53,19.89,23.28,14.43,49.06,1026.87,2056.99,3084.60,2957.80,3276.59,599.86,615.28,16.79,0000 0000 0000 0000 000000
2017-11-22 08:06:27,0.07,0.88,0.00,16.52,19.87,23.20,14.45,49.02,1026.87,2057.00,3082.74,2956.80,3275.27,599.96,615.42,16.84,0000 0000 0000 0000 000000
2017-11-22 08:11:28,0.03,0.89,0.00,16.53,19.87,23.19,14.47,49.15,1026.87,2057.00,3081.79,2956.08,3274.78,599.71,615.37,16.89,0000 0000 0000 0000 000000
2017-11-22 08:16:29,0.08,0.89,0.00,16.46,19.84,23.21,14.50,49.06,1026.87,2057.00,3080.21,2955.42,3273.63,600.10,615.71,16.94,0000 0000 0000 0000 000000
2017-11-22 08:21:30,0.09,0.89,0.00,16.45,19.84,23.16,14.45,48.98,1026.87,2057.00,3077.95,2954.13,3272.11,599.96,615.66,16.99,0000 0000 0000 0000 000000
2017-11-22 08:26:32,0.07,0.90,0.00,16.47,19.82,23.15,14.41,48.95,1026.88,2057.01,3076.23,2953.16,3270.94,599.83,615.45,17.04,0000 0000 0000 0000 000000
2017-11-22 08:31:33,0.06,0.90,0.00,16.45,19.82,23.09,14.45,49.06,1026.89,2057.03,3074.76,2952.38,3270.02,599.68,615.40,17.09,0000 0000 0000 0000 000000
2017-11-22 08:36:34,0.06,0.90,0.00,16.47,19.80,23.13,14.50,49.01,1026.88,2057.06,3073.47,2951.75,3269.13,600.21,615.67,17.14,0000 0000 0000 0000 000000
2017-11-22 08:41:35,0.05,0.91,0.00,16.44,19.79,23.07,14.40,48.95,1026.89,2057.07,3072.20,2950.98,3268.32,599.96,615.61,17.19,0000 0000 0000 0000 000000
2017-11-22 08:46:37,0.13,0.91,0.00,16.43,19.78,23.05,14.48,49.10,1026.95,2057.16,3069.96,2949.73,3266.77,600.31,616.05,17.24,0000 0000 0000 0000 000000
2017-11-22 08:51:38,0.08,0.92,0.00,16.44,19.77,23.04,14.39,49.03,1026.97,2057.19,3067.80,2948.41,3265.17,599.70,615.58,17.29,0000 0000 0000 0000 000000
2017-11-22 08:56:40,0.09,0.92,0.00,16.43,19.76,23.03,14.47,49.01,1027.08,2057.28,3066.01,2947.36,3264.11,599.96,615.76,17.34,0000 0000 0000 0000 000000
2017-11-22 09:01:41,0.07,0.93,0.00,16.43,19.74,23.04,14.50,48.98,1027.02,2057.73,3065.04,2947.00,3263.65,600.04,615.84,17.39,0000 0000 0000 0000 000000
2017-11-22 09:06:42,0.02,0.93,0.00,16.41,19.74,23.03,14.49,49.06,1027.24,2057.89,3064.28,2946.93,3263.01,600.09,615.99,17.44,0000 0000 0000 0000 000000
2017-11-22 09:11:43,0.05,0.93,0.00,16.39,19.72,23.00,14.48,49.19,1027.35,2057.93,3063.51,2946.13,3262.72,600.09,616.12,17.49,0000 0000 0000 0000 000000
2017-11-22 09:16:44,0.04,0.93,0.00,16.39,19.72,23.01,14.51,49.20,1027.36,2057.90,3062.22,2945.72,3261.83,600.34,616.48,17.54,0000 0000 0000 0000 000000
2017-11-22 09:21:46,0.09,0.94,0.00,16.38,19.70,22.98,14.44,49.08,1027.36,2057.92,3060.43,2944.66,3260.64,600.02,616.09,17.59,0000 0000 0000 0000 000000
2017-11-22 09:26:47,0.04,0.94,0.00,16.39,19.69,22.92,14.41,49.10,1027.36,2057.97,3058.98,2944.01,3259.85,599.87,616.01,17.64,0000 0000 0000 0000 000000
2017-11-22 09:31:48,0.08,0.94,0.00,16.37,19.68,22.93,14.49,49.15,1027.37,2057.96,3057.40,2943.12,3258.71,600.11,616.30,17.69,0000 0000 0000 0000 000000
2017-11-22 09:36:49,0.18,0.95,0.00,16.37,19.67,22.94,14.45,49.14,1027.38,2057.96,3054.17,2941.11,3256.37,600.15,616.30,17.74,0000 0000 0000 0000 000000
2017-11-22 09:41:51,0.39,0.97,0.00,16.36,19.67,22.94,14.41,49.16,1027.38,2057.97,3047.05,2936.47,3251.19,600.08,616.29,17.79,0000 0000 0000 0000 000000
2017-11-22 09:46:52,0.29,0.98,0.00,16.37,19.65,22.94,14.40,49.12,1027.38,2057.98,3040.45,2932.13,3246.35,600.21,616.45,17.84,0000 0000 0000 0000 000000
2017-11-22 09:51:53,0.31,1.00,0.00,16.37,19.64,22.94,14.41,49.27,1027.44,2057.98,3033.93,2927.96,3241.67,600.06,616.28,17.89,0000 0000 0000 0000 000000
2017-11-22 09:56:55,0.23,1.01,0.00,16.34,19.64,22.93,14.61,49.28,1027.46,2057.98,3028.78,2924.64,3237.96,600.30,616.65,17.94,0000 0000 0000 0000 000000
2017-11-22 10:01:56,0.23,1.03,0.00,16.36,19.63,22.92,14.38,49.14,1027.46,2057.98,3023.95,2921.52,3234.43,600.06,616.26,17.99,0000 0000 0000 0000 000000
2017-11-22 10:06:57,0.31,1.04,0.00,16.35,19.62,22.89,14.47,49.03,1027.47,2057.98,3018.18,2917.79,3230.23,600.13,616.41,18.04,0000 0000 0000 0000 000000
2017-11-22 10:11:59,0.38,1.06,0.00,16.35,19.62,22.89,14.41,49.03,1027.43,2057.99,3010.50,2912.71,3224.57,599.93,616.15,18.09,0000 0000 0000 0000 000000
2017-11-22 10:17:00,0.31,1.07,0.00,16.36,19.62,22.87,14.48,49.00,1027.48,2057.99,3003.84,2908.23,3219.57,600.05,616.23,18.14,0000 0000 0000 0000 000000
2017-11-22 10:22:01,0.13,1.08,0.00,16.35,19.60,22.86,14.40,48.98,1027.58,2057.99,3000.32,2905.91,3217.03,599.67,615.91,18.19,0000 0000 0000 0000 000000
2017-11-22 10:27:03,0.15,1.09,0.00,16.34,19.59,22.86,14.46,48.94,1027.82,2057.99,2997.45,2904.22,3215.01,600.17,616.63,18.24,0000 0000 0000 0000 000000
2017-11-22 10:32:04,0.16,1.10,0.00,16.34,19.59,22.85,14.43,48.96,1027.85,2057.99,2993.70,2901.79,3212.28,600.12,616.59,18.29,0000 0000 0000 0000 000000
2017-11-22 10:37:05,0.06,1.10,0.00,16.34,19.59,22.87,14.40,48.92,1027.85,2057.99,2992.11,2900.87,3211.20,599.76,616.24,18.34,0000 0000 0000 0000 000000
2017-11-22 10:42:06,0.09,1.11,0.00,16.34,19.59,22.86,14.43,49.03,1027.85,2057.99,2990.23,2899.82,3209.91,599.92,616.41,18.39,0000 0000 0000 0000 000000
2017-11-22 10:47:07,0.11,1.11,0.00,16.34,19.59,22.84,14.47,49.08,1027.85,2057.99,2988.01,2898.50,3208.36,599.85,616.40,18.44,0000 0000 0000 0000 000000
2017-11-22 10:52:08,0.10,1.12,0.00,16.34,19.58,22.88,14.42,49.15,1027.85,2057.99,2985.74,2897.11,3206.76,599.76,616.23,18.49,0000 0000 0000 0000 000000
2017-11-22 10:57:09,0.08,1.12,0.00,16.32,19.57,22.89,14.32,49.07,1027.85,2057.99,2983.79,2895.99,3205.53,599.53,616.11,18.54,0000 0000 0000 0000 000000
2017-11-22 11:02:10,0.09,1.13,0.00,16.32,19.57,22.88,14.51,49.03,1027.86,2057.99,2981.89,2894.84,3204.20,600.09,616.66,18.59,0000 0000 0000 0000 000000
2017-11-22 11:07:12,0.10,1.13,0.00,16.31,19.57,22.83,14.52,49.08,1027.87,2057.99,2979.84,2893.64,3202.80,600.18,616.64,18.64,0000 0000 0000 0000 000000
2017-11-22 11:12:13,0.09,1.14,0.00,16.30,19.57,22.87,14.48,49.09,1027.87,2058.00,2977.80,2892.37,3201.33,600.04,616.63,18.69,0000 0000 0000 0000 000000
2017-11-22 11:17:14,0.10,1.14,0.00,16.28,19.57,22.90,14.32,49.05,1027.92,2058.00,2975.61,2890.99,3199.77,599.64,616.19,18.74,0000 0000 0000 0000 000000
2017-11-22 11:22:16,0.10,1.15,0.00,16.29,19.55,22.88,14.49,49.07,1027.95,2058.00,2973.32,2889.60,3198.34,599.90,616.68,18.79,0000 0000 0000 0000 000000
2017-11-22 11:27:17,0.11,1.15,0.00,16.28,19.54,22.86,14.40,49.02,1028.00,2058.00,2971.11,2888.17,3196.71,599.88,616.54,18.84,0000 0000 0000 0000 000000
2017-11-22 11:32:18,0.10,1.16,0.00,16.26,19.54,22.78,14.53,49.18,1027.97,2058.00,2968.79,2886.75,3195.09,599.64,616.34,18.89,0000 0000 0000 0000 000000
2017-11-22 11:37:19,0.10,1.17,0.00,16.25,19.54,22.78,14.47,49.10,1027.90,2058.00,2966.62,2885.44,3193.55,599.88,616.53,18.94,0000 0000 0000 0000 000000
2017-11-22 11:42:20,0.09,1.17,0.00,16.24,19.54,22.77,14.40,48.96,1028.11,2058.01,2964.57,2884.24,3192.22,599.98,616.86,18.99,0000 0000 0000 0000 000000
2017-11-22 11:47:22,0.11,1.18,0.00,16.24,19.53,22.77,14.45,49.01,1028.26,2058.01,2962.38,2882.82,3190.67,600.12,617.06,19.04,0000 0000 0000 0000 000000
2017-11-22 11:52:23,0.12,1.18,0.00,16.25,19.52,22.77,14.45,48.96,1028.31,2058.01,2960.02,2881.38,3188.89,599.96,616.91,19.09,0000 0000 0000 0000 000000
2017-11-22 11:57:24,0.07,1.19,0.00,16.26,19.52,22.79,14.38,49.11,1028.33,2058.01,2958.23,2880.25,3187.69,599.70,616.60,19.14,0000 0000 0000 0000 000000
2017-11-22 12:02:26,0.06,1.19,0.00,16.25,19.52,22.77,14.47,49.01,1028.33,2058.01,2956.81,2879.51,3186.78,600.11,617.01,19.20,0000 0000 0000 0000 000000
2017-11-22 12:07:27,0.08,1.19,0.00,16.26,19.52,22.76,14.47,49.08,1028.33,2058.03,2955.10,2878.61,3185.54,600.26,617.27,19.25,0000 0000 0000 0000 000000
2017-11-22 12:12:28,0.10,1.20,0.00,16.27,19.52,22.74,14.46,49.17,1028.33,2058.04,2952.90,2877.33,3184.07,600.00,616.98,19.30,0000 0000 0000 0000 000000
2017-11-22 12:17:29,0.08,1.20,0.00,16.27,19.51,22.78,14.48,49.02,1028.33,2058.06,2951.08,2876.24,3182.81,600.04,617.00,19.35,0000 0000 0000 0000 000000
2017-11-22 12:22:30,0.06,1.21,0.00,16.26,19.50,22.76,14.51,49.04,1028.32,2058.09,2949.65,2875.32,3182.02,600.17,617.19,19.40,0000 0000 0000 0000 000000
2017-11-22 12:27:31,0.01,1.21,0.00,16.23,19.49,22.74,14.44,49.02,1028.31,2058.09,2949.02,2875.01,3181.56,600.04,617.16,19.45,0000 0000 0000 0000 000000
2017-11-22 12:32:33,0.02,1.21,0.00,16.24,19.49,22.73,14.41,49.04,1028.29,2058.10,2948.71,2875.00,3181.03,599.76,616.80,19.50,0000 0000 0000 0000 000000
2017-11-22 12:37:34,0.02,1.21,0.00,16.24,19.49,22.72,14.40,49.11,1028.14,2058.17,2948.03,2874.99,3181.00,599.93,616.76,19.55,0000 0000 0000 0000 000000
2017-11-22 12:42:35,0.06,1.21,0.00,16.23,19.49,22.72,14.39,48.98,1028.03,2058.25,2947.29,2874.50,3180.51,599.76,616.53,19.60,0000 0000 0000 0000 000000
2017-11-22 12:47:36,0.04,1.22,0.00,16.23,19.49,22.66,14.47,48.98,1028.00,2058.25,2946.16,2873.84,3179.72,599.87,616.71,19.65,0000 0000 0000 0000 000000
2017-11-22 12:52:38,0.08,1.22,0.00,16.24,19.49,22.66,14.46,49.12,1027.98,2058.14,2944.40,2872.75,3178.51,599.76,616.48,19.70,0000 0000 0000 0000 000000
2017-11-22 12:57:39,0.12,1.22,0.00,16.22,19.49,22.68,14.38,49.16,1028.05,2058.29,2942.35,2871.55,3177.05,599.84,616.73,19.75,0000 0000 0000 0000 000000